Regional Weather Roundup
Issued by NWS

Home | Current Version | Previous Version | Graphics & Text | Print | Product List | Glossary On
Versions: 1 2 3 4 5 6 7 8 9 10 11 12 13 14 15 16 17 18 19 20 21 22 23 24 25 26 27 28 29 30 31 32 33 34 35 36 37 38 39 40 41 42 43 44 45 46 47 48 49 50
000
ASUS43 KOAX 230902
RWRNE

WEATHER ROUNDUP FOR NEBRASKA
NATIONAL WEATHER SERVICE OMAHA NE
300 AM CST THU FEB 23 2017

NOTES: SATELLITE DATA IS BEING USED TO AUGMENT CLOUD COVER ABOVE
       12000 FEET.
       "FAIR" INDICATES FEW OR NO CLOUDS BELOW 12,000 FEET WITH NO
       SIGNIFICANT WEATHER AND/OR OBSTRUCTIONS TO VISIBILITY.

  * THESE STATIONS DO NOT REPORT WEATHER SUCH AS RAIN...SNOW OR FOG.

NEZ001>004-019>022-054>056-231000-
NEBRASKA PANHANDLE

CITY           SKY/WX    TMP DP  RH WIND       PRES   REMARKS
SCOTTSBLUFF    CLOUDY    33  29  85 E13G23    29.76F WCI  24
ALLIANCE       CLOUDY    30  28  92 NE16      29.76F WCI  19
CHADRON        LGT SNOW  31  28  89 NE13      29.84F FOG     WCI  21
KIMBALL        CLOUDY    34  32  93 NE18      29.71F WCI  23
SIDNEY         CLOUDY    34  29  82 NE22G28   29.72F WCI  22
$$

NEZ057>060-069>072-079>082-231000-
SOUTHWEST NEBRASKA

CITY           SKY/WX    TMP DP  RH WIND       PRES   REMARKS
NORTH PLATTE   CLOUDY    36  31  82 NE20G29   29.76F WCI  25
IMPERIAL       CLOUDY    37  32  82 NE22      29.72F WCI  26
LEXINGTON      CLOUDY    40  35  84 NE18G25   29.76F WCI  30
MCCOOK         PTCLDY    37  32  82 NE13      29.72S WCI  29
OGALLALA       CLOUDY    36  32  86 NE16G22   29.75F WCI  26
$$

NEZ005>010-023>029-035>040-094-231000-
NORTH CENTRAL NEBRASKA

CITY           SKY/WX    TMP DP  RH WIND       PRES   REMARKS
VALENTINE      CLOUDY    30  28  92 NE16G24   29.86F FOG     WCI  19
AINSWORTH      CLOUDY    31  31 100 NE16G24   29.84F FOG     WCI  20
BROKEN BOW     CLOUDY    38  36  92 NE10      29.78F WCI  31
O`NEILL        CLOUDY    32  31  97 N21G26    29.84F WCI  20
ORD            CLOUDY    38  33  82 N16       29.81F WCI  29
THEDFORD       CLOUDY    34  32  94 NE14      29.82S WCI  24
$$

NEZ041-046>049-061>064-073>077-083>087-231000-
SOUTH CENTRAL NEBRASKA

CITY           SKY/WX    TMP DP  RH WIND       PRES   REMARKS
GRAND ISLAND   CLOUDY    39  36  89 NE14      29.80R WCI  31
AURORA         CLOUDY    38  36  92 NE13      29.79S WCI  30
HASTINGS       CLOUDY    40  35  83 NE18      29.77S WCI  31
HEBRON         PTCLDY    44  37  78 NE13      29.75R
HOLDREGE       CLOUDY    38  34  83 NE20      29.75R WCI  29
KEARNEY *      CLOUDY    39  34  81 NE21G29   29.77F WCI  29
YORK           CLOUDY    37  36  93 NE14      29.79S WCI  29
$$

NEZ011>018-030>034-042>045-231000-
NORTHEAST NEBRASKA

CITY           SKY/WX    TMP DP  RH WIND       PRES   REMARKS
NORFOLK        CLOUDY    36  32  85 N16       29.83R WCI  26
ALBION         CLOUDY    37  32  81 N13G21    29.83R WCI  29
BLAIR          CLOUDY    40  37  87 N10       29.79S WCI  34
FREMONT        CLOUDY    39  37  93 N8        29.81F WCI  34
TEKAMAH        CLOUDY    39  35  86 N18       29.83R WCI  30
WAYNE          CLOUDY    35  33  94 NE18G26   29.84R WCI  24
$$

NEZ050>053-065>068-078-088>093-231000-
SOUTHEAST NEBRASKA

CITY           SKY/WX    TMP DP  RH WIND       PRES   REMARKS
LINCOLN        CLOUDY    42  37  82 NE9       29.79S
OMAHA EPPLEY   CLOUDY    40  35  83 N10       29.79F WCI  33
BEATRICE       PTCLDY    45  38  77 NE9G16    29.74S
FALLS CITY     PTCLDY    45  38  76 NE6       29.72F
NEBRASKA CITY  MOCLDY    42  37  80 NE12      29.75S
PLATTSMOUTH    PTCLDY    42  36  79 N5        29.77R
$$

NEZ044-045-051>053-067-231000-
OMAHA AREA

CITY           SKY/WX    TMP DP  RH WIND       PRES   REMARKS
OMAHA EPPLEY   CLOUDY    40  35  83 N10       29.79F WCI  33
BLAIR          CLOUDY    40  37  87 N10       29.79S WCI  34
FREMONT        CLOUDY    39  37  93 N8        29.81F WCI  34
MILLARD        CLOUDY    46  40  81 N7        29.78S
OFFUTT AFB     MOCLDY    43  37  81 NE13      29.76F
PLATTSMOUTH    PTCLDY    42  36  79 N5        29.77R
WAHOO          FAIR      39  37  90 N10       29.80S WCI  32
$$




USA.gov is the U.S. government's official web portal to all federal, state and local government web resources and services.